Time,TemperatureF,DewpointF,PressureIn,WindDirection,WindDirectionDegrees,WindSpeedMPH,WindSpeedGustMPH,Humidity,HourlyPrecipIn,Conditions,Clouds,dailyrainin,SoftwareType,DateUTC
2014-09-15 00:01:00,50.5,45.5,30.13,SSW,208,0.0,0.0,83,0.00,-DZ,,0.00,WeatherDisplay:10.37,2014-09-15 05:01:00,
2014-09-15 00:06:00,50.5,45.5,30.13,SSW,208,0.0,0.0,83,0.00,OVC,,0.00,WeatherDisplay:10.37,2014-09-15 05:06:00,
2014-09-15 00:11:00,50.4,45.4,30.13,SSW,208,0.0,0.0,83,0.00,OVC,,0.00,WeatherDisplay:10.37,2014-09-15 05:11:00,
2014-09-15 00:16:00,50.4,45.4,30.13,SSW,208,0.0,0.0,83,0.00,OVC,,0.00,WeatherDisplay:10.37,2014-09-15 05:16:00,
2014-09-15 00:21:00,50.4,45.4,30.13,SSW,208,0.0,0.0,83,0.00,OVC,,0.00,WeatherDisplay:10.37,2014-09-15 05:21:00,
2014-09-15 00:26:00,50.2,45.2,30.13,SSW,208,0.0,0.0,83,0.00,-DZ,,0.00,WeatherDisplay:10.37,2014-09-15 05:26:00,
2014-09-15 00:31:00,50.2,45.6,30.13,SSW,208,0.0,0.0,84,0.00,CLR,,0.00,WeatherDisplay:10.37,2014-09-15 05:31:00,
2014-09-15 00:36:00,50.2,45.6,30.13,SSW,208,0.0,0.0,84,0.00,CLR,,0.00,WeatherDisplay:10.37,2014-09-15 05:36:00,
2014-09-15 00:41:00,50.2,45.2,30.13,SSW,208,0.0,0.0,83,0.00,CLR,,0.00,WeatherDisplay:10.37,2014-09-15 05:41:00,
2014-09-15 00:46:00,50.2,45.6,30.13,SSW,208,0.0,0.0,84,0.00,BKN,,0.00,WeatherDisplay:10.37,2014-09-15 05:46:00,
2014-09-15 00:51:00,50.2,45.6,30.13,SSW,208,0.0,0.0,84,0.00,CLR,,0.00,WeatherDisplay:10.37,2014-09-15 05:51:00,
2014-09-15 00:56:00,50.2,45.6,30.13,SSW,208,0.0,0.0,84,0.00,CLR,,0.00,WeatherDisplay:10.37,2014-09-15 05:56:00,
2014-09-15 01:01:00,50.2,45.9,30.13,SSW,208,0.0,0.0,85,0.00,-RA,,0.00,WeatherDisplay:10.37,2014-09-15 06:01:00,
2014-09-15 01:03:00,50.2,45.9,30.13,SSW,208,0.0,0.0,85,0.00,BKN,,0.00,WeatherDisplay:10.37,2014-09-15 06:03:00,
2014-09-15 01:08:00,50.2,45.9,30.13,SSW,208,0.0,0.0,85,0.00,BKN,,0.00,WeatherDisplay:10.37,2014-09-15 06:08:00,
2014-09-15 01:13:00,50.2,45.9,30.13,SSW,208,0.0,0.0,85,0.00,BKN,,0.00,WeatherDisplay:10.37,2014-09-15 06:13:00,
2014-09-15 01:18:00,50.2,45.9,30.13,SSW,208,0.0,0.0,85,0.00,BKN,,0.00,WeatherDisplay:10.37,2014-09-15 06:18:00,
2014-09-15 01:23:00,50.2,45.9,30.13,SSW,208,0.0,0.0,85,0.00,BKN,,0.00,WeatherDisplay:10.37,2014-09-15 06:23:00,
2014-09-15 01:28:00,50.2,45.6,30.13,NNW,341,1.1,0.0,84,0.00,BKN,,0.00,WeatherDisplay:10.37,2014-09-15 06:28:00,
2014-09-15 01:33:00,50.4,45.7,30.13,NNW,341,0.0,0.0,84,0.00,-RA,,0.00,WeatherDisplay:10.37,2014-09-15 06:33:00,
2014-09-15 01:38:00,50.4,45.4,30.13,NNW,341,0.0,0.0,83,0.00,SCT,,0.00,WeatherDisplay:10.37,2014-09-15 06:38:00,
2014-09-15 01:43:00,50.4,45.4,30.13,NNW,341,0.0,0.0,83,0.00,-RA,,0.00,WeatherDisplay:10.37,2014-09-15 06:43:00,
2014-09-15 01:48:00,50.4,45.7,30.13,NNW,341,0.0,0.0,84,0.00,-RA,,0.00,WeatherDisplay:10.37,2014-09-15 06:48:00,
2014-09-15 01:53:00,50.4,45.7,30.13,NNW,341,0.0,0.0,84,0.01,RA,,0.01,WeatherDisplay:10.37,2014-09-15 06:53:00,
2014-09-15 01:58:00,50.2,45.6,30.13,NNW,341,0.0,0.0,84,0.01,-RA,,0.01,WeatherDisplay:10.37,2014-09-15 06:58:00,
2014-09-15 02:03:00,50.1,45.8,30.13,NNW,341,0.0,0.0,85,0.01,RA,,0.01,WeatherDisplay:10.37,2014-09-15 07:03:00,
2014-09-15 02:08:00,50.1,46.1,30.13,NNW,341,0.0,0.0,86,0.01,RA,,0.01,WeatherDisplay:10.37,2014-09-15 07:08:00,
2014-09-15 02:13:00,50.1,46.1,30.13,NNW,341,0.0,0.0,86,0.01,SCT,,0.01,WeatherDisplay:10.37,2014-09-15 07:13:00,
2014-09-15 02:18:00,49.8,46.1,30.13,NNW,341,0.0,0.0,87,0.01,SCT,,0.01,WeatherDisplay:10.37,2014-09-15 07:18:00,
2014-09-15 02:23:00,49.8,46.1,30.12,NNW,341,1.1,0.0,87,0.01,-RA,,0.01,WeatherDisplay:10.37,2014-09-15 07:23:00,
2014-09-15 02:28:00,49.6,45.9,30.12,NNW,341,0.0,0.0,87,0.01,-RA,,0.01,WeatherDisplay:10.37,2014-09-15 07:28:00,
2014-09-15 02:33:00,49.6,45.9,30.12,NNW,341,0.0,0.0,87,0.01,-RA,,0.01,WeatherDisplay:10.37,2014-09-15 07:33:00,
2014-09-15 02:38:00,49.6,45.6,30.11,NNW,341,0.0,0.0,86,0.01,-RA,,0.01,WeatherDisplay:10.37,2014-09-15 07:38:00,
2014-09-15 02:43:00,49.6,45.6,30.11,NNW,341,0.0,0.0,86,0.01,BKN,,0.01,WeatherDisplay:10.37,2014-09-15 07:43:00,
2014-09-15 02:48:00,49.6,45.6,30.11,NNW,341,0.0,0.0,86,0.01,-RA,,0.01,WeatherDisplay:10.37,2014-09-15 07:48:00,
2014-09-15 02:53:00,49.6,45.6,30.11,NNW,341,0.0,0.0,86,0.01,BKN,,0.01,WeatherDisplay:10.37,2014-09-15 07:53:00,
2014-09-15 02:58:00,49.6,45.9,30.12,NNW,341,0.0,0.0,87,0.01,-RA,,0.01,WeatherDisplay:10.37,2014-09-15 07:58:00,
2014-09-15 03:03:00,49.5,45.5,30.12,NNW,341,1.1,0.0,86,0.01,OVC,,0.01,WeatherDisplay:10.37,2014-09-15 08:03:00,
2014-09-15 03:04:00,49.5,45.5,30.12,NNW,341,0.0,0.0,86,0.01,OVC,,0.01,WeatherDisplay:10.37,2014-09-15 08:04:00,
2014-09-15 03:09:00,49.6,45.6,30.11,NNW,341,1.1,0.0,86,0.01,OVC,,0.01,WeatherDisplay:10.37,2014-09-15 08:09:00,
2014-09-15 03:14:00,49.6,45.6,30.11,NNW,341,1.1,1.1,86,0.01,OVC,,0.01,WeatherDisplay:10.37,2014-09-15 08:14:00,
2014-09-15 03:19:00,49.6,45.3,30.11,NNW,341,2.3,2.3,85,0.01,OVC,,0.01,WeatherDisplay:10.37,2014-09-15 08:19:00,
2014-09-15 03:24:00,49.6,45.0,30.11,NNW,341,2.3,2.3,84,0.01,OVC,,0.01,WeatherDisplay:10.37,2014-09-15 08:24:00,
2014-09-15 03:29:00,49.8,45.2,30.11,NNW,341,0.0,0.0,84,0.01,OVC,,0.01,WeatherDisplay:10.37,2014-09-15 08:29:00,
2014-09-15 03:34:00,49.8,45.2,30.11,NNW,341,0.0,0.0,84,0.01,OVC,,0.01,WeatherDisplay:10.37,2014-09-15 08:34:00,
2014-09-15 03:39:00,49.6,45.3,30.11,NNW,341,0.0,0.0,85,0.01,OVC,,0.01,WeatherDisplay:10.37,2014-09-15 08:39:00,
2014-09-15 03:44:00,49.6,45.3,30.11,NNW,341,0.0,0.0,85,0.01,OVC,,0.01,WeatherDisplay:10.37,2014-09-15 08:44:00,
2014-09-15 03:48:00,49.5,45.5,30.12,NNW,341,0.0,0.0,86,0.01,OVC,,0.01,WeatherDisplay:10.37,2014-09-15 08:48:00,
2014-09-15 03:49:00,49.5,45.5,30.12,NNW,341,0.0,0.0,86,0.01,OVC,,0.01,WeatherDisplay:10.37,2014-09-15 08:49:00,
2014-09-15 03:54:00,49.5,45.5,30.12,NNW,341,0.0,0.0,86,0.01,OVC,,0.01,WeatherDisplay:10.37,2014-09-15 08:54:00,
2014-09-15 04:02:00,49.5,45.5,30.12,NNW,341,0.0,0.0,86,0.01,BKN,,0.01,WeatherDisplay:10.37,2014-09-15 09:02:00,
2014-09-15 04:07:00,49.5,46.1,30.12,NNW,341,0.0,0.0,88,0.01,-DZ,,0.01,WeatherDisplay:10.37,2014-09-15 09:07:00,
2014-09-15 04:12:00,49.3,45.9,30.13,NNW,341,0.0,0.0,88,0.00,-DZ,,0.01,WeatherDisplay:10.37,2014-09-15 09:12:00,
2014-09-15 04:17:00,49.3,45.9,30.13,NNW,341,0.0,0.0,88,0.00,-DZ,,0.01,WeatherDisplay:10.37,2014-09-15 09:17:00,
2014-09-15 04:22:00,49.3,46.2,30.13,NNW,341,0.0,0.0,89,0.00,BKN,,0.01,WeatherDisplay:10.37,2014-09-15 09:22:00,
2014-09-15 04:27:00,49.2,46.1,30.13,NNW,341,0.0,0.0,89,0.00,-RA,,0.01,WeatherDisplay:10.37,2014-09-15 09:27:00,
2014-09-15 04:32:00,49.2,46.1,30.12,NNW,341,0.0,0.0,89,0.00,-RA,,0.01,WeatherDisplay:10.37,2014-09-15 09:32:00,
2014-09-15 04:37:00,49.2,46.1,30.12,NNW,341,0.0,0.0,89,0.00,-RA,,0.01,WeatherDisplay:10.37,2014-09-15 09:37:00,
2014-09-15 04:42:00,49.2,46.4,30.12,NNW,341,0.0,0.0,90,0.00,OVC,,0.01,WeatherDisplay:10.37,2014-09-15 09:42:00,
2014-09-15 04:47:00,49.2,46.4,30.12,NNW,341,0.0,0.0,90,0.00,OVC,,0.01,WeatherDisplay:10.37,2014-09-15 09:47:00,
2014-09-15 04:52:00,49.2,46.4,30.12,NNW,341,0.0,0.0,90,0.00,-RA,,0.01,WeatherDisplay:10.37,2014-09-15 09:52:00,
2014-09-15 04:57:00,49.2,46.7,30.12,NNW,341,0.0,0.0,91,0.00,-RA,,0.01,WeatherDisplay:10.37,2014-09-15 09:57:00,
2014-09-15 05:02:00,49.2,46.7,30.12,NNW,341,0.0,0.0,91,0.00,-RA,,0.01,WeatherDisplay:10.37,2014-09-15 10:02:00,
2014-09-15 05:07:00,49.0,46.5,30.12,NNW,341,0.0,0.0,91,0.00,OVC,,0.01,WeatherDisplay:10.37,2014-09-15 10:07:00,
2014-09-15 05:12:00,48.9,46.4,30.14,NNW,341,0.0,0.0,91,0.00,OVC,,0.01,WeatherDisplay:10.37,2014-09-15 10:12:00,
2014-09-15 05:17:00,48.9,46.4,30.14,NNW,341,0.0,0.0,91,0.00,OVC,,0.01,WeatherDisplay:10.37,2014-09-15 10:17:00,
2014-09-15 05:22:00,48.9,46.4,30.14,NNW,341,0.0,0.0,91,0.00,OVC,,0.01,WeatherDisplay:10.37,2014-09-15 10:22:00,
2014-09-15 05:27:00,48.9,46.7,30.14,NNW,341,0.0,0.0,92,0.00,OVC,,0.01,WeatherDisplay:10.37,2014-09-15 10:27:00,
2014-09-15 05:32:00,48.9,46.7,30.14,NNW,341,0.0,0.0,92,0.00,-DZ,,0.01,WeatherDisplay:10.37,2014-09-15 10:32:00,
2014-09-15 05:37:00,48.7,46.5,30.15,NNW,341,0.0,0.0,92,0.00,-DZ,,0.01,WeatherDisplay:10.37,2014-09-15 10:37:00,
2014-09-15 05:42:00,48.7,46.5,30.15,NNW,341,0.0,0.0,92,0.00,-DZ,,0.01,WeatherDisplay:10.37,2014-09-15 10:42:00,
2014-09-15 05:47:00,48.7,46.5,30.15,NNW,341,0.0,0.0,92,0.00,-DZ,,0.01,WeatherDisplay:10.37,2014-09-15 10:47:00,
2014-09-15 05:52:00,48.7,46.5,30.15,NNW,341,0.0,0.0,92,0.00,OVC,,0.01,WeatherDisplay:10.37,2014-09-15 10:52:00,
2014-09-15 05:57:00,48.7,46.5,30.15,NNW,341,0.0,0.0,92,0.01,-DZ,,0.02,WeatherDisplay:10.37,2014-09-15 10:57:00,
2014-09-15 06:02:00,48.7,46.5,30.16,NNW,341,0.0,0.0,92,0.01,-RA,,0.02,WeatherDisplay:10.37,2014-09-15 11:02:00,
2014-09-15 06:07:00,48.7,46.5,30.16,NNW,341,1.1,0.0,92,0.01,RA,,0.02,WeatherDisplay:10.37,2014-09-15 11:07:00,
2014-09-15 06:12:00,48.6,46.4,30.15,NNW,341,1.1,0.0,92,0.01,RA,,0.02,WeatherDisplay:10.37,2014-09-15 11:12:00,
2014-09-15 06:17:00,48.4,46.2,30.15,NNW,341,0.0,0.0,92,0.01,OVC,,0.02,WeatherDisplay:10.37,2014-09-15 11:17:00,
2014-09-15 06:22:00,48.3,46.1,30.15,NNW,341,1.1,1.1,92,0.01,OVC,,0.02,WeatherDisplay:10.37,2014-09-15 11:22:00,
2014-09-15 06:27:00,48.1,45.9,30.15,NNW,341,1.1,0.0,92,0.01,OVC,,0.02,WeatherDisplay:10.37,2014-09-15 11:27:00,
2014-09-15 06:32:00,48.1,45.9,30.15,NNW,341,0.0,0.0,92,0.01,OVC,,0.02,WeatherDisplay:10.37,2014-09-15 11:32:00,
2014-09-15 06:34:00,48.1,45.9,30.15,NNW,341,0.0,0.0,92,0.01,-DZ,,0.02,WeatherDisplay:10.37,2014-09-15 11:34:00,
2014-09-15 06:39:00,48.1,45.9,30.15,NNW,341,0.0,0.0,92,0.01,-DZ,,0.02,WeatherDisplay:10.37,2014-09-15 11:39:00,
2014-09-15 06:44:00,48.1,45.9,30.15,NNW,341,0.0,0.0,92,0.01,-DZ,,0.02,WeatherDisplay:10.37,2014-09-15 11:44:00,
2014-09-15 06:49:00,48.0,45.8,30.15,NNW,341,0.0,0.0,92,0.01,-DZ,,0.02,WeatherDisplay:10.37,2014-09-15 11:49:00,
2014-09-15 06:54:00,48.1,45.9,30.15,NNW,341,0.0,0.0,92,0.01,-DZ,,0.02,WeatherDisplay:10.37,2014-09-15 11:54:00,
2014-09-15 06:57:00,48.1,45.9,30.15,NNW,341,0.0,0.0,92,0.01,-DZ,,0.02,WeatherDisplay:10.37,2014-09-15 11:57:00,
2014-09-15 07:02:00,48.3,46.1,30.15,WNW,286,5.0,5.0,92,0.02,-DZ,,0.03,WeatherDisplay:10.37,2014-09-15 12:02:00,
2014-09-15 07:07:00,48.4,46.2,30.18,WNW,286,0.0,0.0,92,0.02,-DZ,,0.03,WeatherDisplay:10.37,2014-09-15 12:07:00,
2014-09-15 07:12:00,48.4,46.2,30.18,WNW,288,3.5,3.5,92,0.03,-DZ,,0.04,WeatherDisplay:10.37,2014-09-15 12:12:00,
2014-09-15 07:17:00,48.3,46.1,30.18,WNW,288,1.1,1.1,92,0.04,-RA,,0.05,WeatherDisplay:10.37,2014-09-15 12:17:00,
2014-09-15 07:22:00,48.3,46.1,30.18,WNW,288,0.0,0.0,92,0.04,-RA,,0.05,WeatherDisplay:10.37,2014-09-15 12:22:00,
2014-09-15 07:27:00,48.1,45.9,30.18,WNW,288,2.3,2.3,92,0.05,-RA,,0.06,WeatherDisplay:10.37,2014-09-15 12:27:00,
2014-09-15 07:32:00,48.0,45.8,30.18,WNW,288,0.0,0.0,92,0.06,-RA,,0.07,WeatherDisplay:10.37,2014-09-15 12:32:00,
2014-09-15 07:37:00,48.0,45.8,30.18,WNW,288,0.0,0.0,92,0.05,-RA,,0.07,WeatherDisplay:10.37,2014-09-15 12:37:00,
2014-09-15 07:42:00,48.0,46.1,30.18,WNW,288,0.0,0.0,93,0.05,-RA,,0.07,WeatherDisplay:10.37,2014-09-15 12:42:00,
2014-09-15 07:47:00,48.0,46.1,30.18,WNW,288,0.0,0.0,93,0.05,OVC,,0.07,WeatherDisplay:10.37,2014-09-15 12:47:00,
2014-09-15 07:52:00,48.1,46.2,30.18,WNW,288,1.1,0.0,93,0.05,OVC,,0.07,WeatherDisplay:10.37,2014-09-15 12:52:00,
2014-09-15 07:55:00,48.1,46.2,30.18,WNW,288,0.0,0.0,93,0.05,OVC,,0.07,WeatherDisplay:10.37,2014-09-15 12:55:00,
2014-09-15 08:00:00,48.1,46.2,30.18,WNW,289,2.3,0.0,93,0.05,OVC,,0.07,WeatherDisplay:10.37,2014-09-15 13:00:00,
2014-09-15 08:05:00,48.0,46.1,30.18,WNW,289,2.3,2.3,93,0.04,-RA,,0.07,WeatherDisplay:10.37,2014-09-15 13:05:00,
2014-09-15 08:10:00,48.0,46.1,30.18,WNW,289,0.0,0.0,93,0.03,-RA,,0.08,WeatherDisplay:10.37,2014-09-15 13:10:00,
2014-09-15 08:15:00,48.0,46.1,30.18,WNW,289,2.3,0.0,93,0.03,-RA,,0.08,WeatherDisplay:10.37,2014-09-15 13:15:00,
2014-09-15 08:20:00,48.0,46.1,30.18,WNW,288,0.0,0.0,93,0.03,-RA,,0.08,WeatherDisplay:10.37,2014-09-15 13:20:00,
2014-09-15 08:25:00,48.0,46.1,30.18,WNW,289,0.0,0.0,93,0.02,-RA,,0.08,WeatherDisplay:10.37,2014-09-15 13:25:00,
2014-09-15 08:30:00,48.1,46.2,30.18,WNW,289,1.1,0.0,93,0.02,-RA,,0.08,WeatherDisplay:10.37,2014-09-15 13:30:00,
2014-09-15 08:35:00,48.1,46.2,30.18,WNW,289,0.0,0.0,93,0.01,-RA,,0.08,WeatherDisplay:10.37,2014-09-15 13:35:00,
2014-09-15 08:40:00,48.1,46.2,30.18,WNW,289,0.0,0.0,93,0.01,-RA,,0.08,WeatherDisplay:10.37,2014-09-15 13:40:00,
2014-09-15 08:45:00,48.3,46.4,30.18,WNW,289,0.0,0.0,93,0.01,-RA,,0.08,WeatherDisplay:10.37,2014-09-15 13:45:00,
2014-09-15 08:50:00,48.4,46.5,30.17,WNW,289,1.1,0.0,93,0.01,-DZ,,0.08,WeatherDisplay:10.37,2014-09-15 13:50:00,
2014-09-15 08:55:00,48.7,46.8,30.17,WNW,289,0.0,0.0,93,0.01,-DZ,,0.08,WeatherDisplay:10.37,2014-09-15 13:55:00,
2014-09-15 09:00:00,48.9,47.0,30.17,WNW,289,0.0,0.0,93,0.01,-DZ,,0.08,WeatherDisplay:10.37,2014-09-15 14:00:00,
2014-09-15 09:05:00,48.9,47.0,30.18,WNW,289,0.0,0.0,93,0.01,OVC,,0.08,WeatherDisplay:10.37,2014-09-15 14:05:00,
2014-09-15 09:10:00,49.2,47.3,30.18,WNW,289,0.0,0.0,93,0.01,OVC,,0.08,WeatherDisplay:10.37,2014-09-15 14:10:00,
2014-09-15 09:15:00,49.2,47.3,30.18,WNW,289,0.0,0.0,93,0.00,OVC,,0.08,WeatherDisplay:10.37,2014-09-15 14:15:00,
2014-09-15 09:20:00,49.5,47.6,30.17,WNW,289,0.0,0.0,93,0.00,OVC,,0.08,WeatherDisplay:10.37,2014-09-15 14:20:00,
2014-09-15 09:25:00,49.5,47.6,30.17,WNW,289,0.0,0.0,93,0.00,OVC,,0.08,WeatherDisplay:10.37,2014-09-15 14:25:00,
2014-09-15 09:30:00,49.5,47.6,30.17,WNW,289,0.0,0.0,93,0.00,OVC,,0.08,WeatherDisplay:10.37,2014-09-15 14:30:00,
2014-09-15 09:35:00,49.9,48.0,30.17,WNW,289,0.0,0.0,93,0.00,OVC,,0.08,WeatherDisplay:10.37,2014-09-15 14:35:00,
2014-09-15 09:40:00,50.1,48.2,30.18,WNW,289,0.0,0.0,93,0.00,OVC,,0.08,WeatherDisplay:10.37,2014-09-15 14:40:00,
2014-09-15 09:45:00,50.2,48.0,30.18,WNW,289,0.0,0.0,92,0.00,OVC,,0.08,WeatherDisplay:10.37,2014-09-15 14:45:00,
2014-09-15 09:50:00,49.9,47.7,30.18,WNW,289,0.0,0.0,92,0.00,OVC,,0.08,WeatherDisplay:10.37,2014-09-15 14:50:00,
2014-09-15 09:55:00,49.9,47.4,30.18,WNW,289,1.1,0.0,91,0.00,OVC,,0.08,WeatherDisplay:10.37,2014-09-15 14:55:00,
2014-09-15 10:00:00,49.8,47.0,30.18,NW,317,3.5,3.5,90,0.00,OVC,,0.08,WeatherDisplay:10.37,2014-09-15 15:00:00,
2014-09-15 10:05:00,49.8,47.0,30.19,NW,317,2.3,2.3,90,0.00,OVC,,0.08,WeatherDisplay:10.37,2014-09-15 15:05:00,
2014-09-15 10:10:00,49.6,46.2,30.18,NW,320,1.1,1.1,88,0.00,OVC,,0.08,WeatherDisplay:10.37,2014-09-15 15:10:00,
2014-09-15 10:15:00,49.9,46.2,30.18,NW,315,0.0,0.0,87,0.00,OVC,,0.08,WeatherDisplay:10.37,2014-09-15 15:15:00,
2014-09-15 10:20:00,50.4,46.4,30.19,NW,315,3.5,0.0,86,0.00,OVC,,0.08,WeatherDisplay:10.37,2014-09-15 15:20:00,
2014-09-15 10:25:00,50.8,46.1,30.19,WNW,299,0.0,0.1,84,0.00,OVC,,0.08,WeatherDisplay:10.37,2014-09-15 15:25:00,
2014-09-15 10:28:00,51.1,46.1,30.19,WNW,299,1.1,1.1,83,0.00,OVC,,0.08,WeatherDisplay:10.37,2014-09-15 15:28:00,
2014-09-15 10:33:00,51.5,46.2,30.19,NNW,342,3.5,3.5,82,0.00,BKN,,0.08,WeatherDisplay:10.37,2014-09-15 15:33:00,
2014-09-15 10:38:00,51.8,45.8,30.19,NNW,342,3.5,3.5,80,0.00,BKN,,0.08,WeatherDisplay:10.37,2014-09-15 15:38:00,
2014-09-15 10:43:00,51.5,45.2,30.19,NNW,343,3.0,3.0,79,0.00,BKN,,0.08,WeatherDisplay:10.37,2014-09-15 15:43:00,
2014-09-15 10:48:00,51.5,44.9,30.19,North,5,5.8,5.8,78,0.00,BKN,,0.08,WeatherDisplay:10.37,2014-09-15 15:48:00,
2014-09-15 10:53:00,51.8,44.8,30.19,North,360,4.6,4.6,77,0.00,BKN,,0.08,WeatherDisplay:10.37,2014-09-15 15:53:00,
2014-09-15 10:58:00,52.3,45.0,30.19,North,355,3.5,0.0,76,0.00,BKN,,0.08,WeatherDisplay:10.37,2014-09-15 15:58:00,
2014-09-15 11:03:00,52.7,44.6,30.19,North,355,0.0,0.0,74,0.00,BKN,,0.08,WeatherDisplay:10.37,2014-09-15 16:03:00,
2014-09-15 11:08:00,53.0,44.6,30.19,NW,316,1.1,0.0,73,0.00,BKN,,0.08,WeatherDisplay:10.37,2014-09-15 16:08:00,
2014-09-15 11:13:00,53.8,45.3,30.19,NW,313,2.0,2.0,73,0.00,BKN,,0.08,WeatherDisplay:10.37,2014-09-15 16:13:00,
2014-09-15 11:18:00,53.8,45.0,30.19,NW,317,1.1,0.0,72,0.00,BKN,,0.08,WeatherDisplay:10.37,2014-09-15 16:18:00,
2014-09-15 11:23:00,53.5,44.7,30.19,NNW,329,3.5,3.5,72,0.00,BKN,,0.08,WeatherDisplay:10.37,2014-09-15 16:23:00,
2014-09-15 11:28:00,53.0,44.6,30.19,NNW,348,2.3,2.3,73,0.00,BKN,,0.08,WeatherDisplay:10.37,2014-09-15 16:28:00,
2014-09-15 11:33:00,52.6,44.5,30.19,WNW,285,0.0,0.0,74,0.00,BKN,,0.08,WeatherDisplay:10.37,2014-09-15 16:33:00,
2014-09-15 11:38:00,52.6,44.5,30.19,NW,325,1.1,0.0,74,0.00,BKN,,0.08,WeatherDisplay:10.37,2014-09-15 16:38:00,
2014-09-15 11:43:00,53.2,44.4,30.19,North,355,3.5,3.5,72,0.00,BKN,,0.08,WeatherDisplay:10.37,2014-09-15 16:43:00,
2014-09-15 11:48:00,54.1,44.5,30.19,North,355,0.0,0.0,70,0.00,OVC,,0.08,WeatherDisplay:10.37,2014-09-15 16:48:00,
2014-09-15 11:53:00,54.8,44.0,30.19,NW,322,5.8,5.8,67,0.00,OVC,,0.08,WeatherDisplay:10.37,2014-09-15 16:53:00,
2014-09-15 11:58:00,54.4,43.3,30.19,NNW,347,3.5,3.5,66,0.00,OVC,,0.08,WeatherDisplay:10.37,2014-09-15 16:58:00,
2014-09-15 12:03:00,54.1,43.8,30.19,WNW,300,3.5,3.5,68,0.00,BKN,,0.08,WeatherDisplay:10.37,2014-09-15 17:03:00,
2014-09-15 12:08:00,53.6,43.7,30.19,North,5,5.8,5.8,69,0.00,BKN,,0.08,WeatherDisplay:10.37,2014-09-15 17:08:00,
2014-09-15 12:13:00,53.0,43.5,30.19,NW,315,3.5,3.5,70,0.00,BKN,,0.08,WeatherDisplay:10.37,2014-09-15 17:13:00,
2014-09-15 12:18:00,53.0,44.2,30.19,North,355,0.0,0.2,72,0.00,BKN,,0.08,WeatherDisplay:10.37,2014-09-15 17:18:00,
2014-09-15 12:23:00,53.6,44.0,30.19,North,5,4.6,4.6,70,0.00,BKN,,0.08,WeatherDisplay:10.37,2014-09-15 17:23:00,
2014-09-15 12:28:00,54.4,43.3,30.19,NNE,12,3.5,3.5,66,0.00,BKN,,0.08,WeatherDisplay:10.37,2014-09-15 17:28:00,
2014-09-15 12:33:00,54.1,40.9,30.19,North,355,5.8,5.8,61,0.00,SCT,,0.08,WeatherDisplay:10.37,2014-09-15 17:33:00,
2014-09-15 12:38:00,54.1,43.0,30.19,North,355,1.1,0.0,66,0.00,SCT,,0.08,WeatherDisplay:10.37,2014-09-15 17:38:00,
2014-09-15 12:43:00,54.2,42.7,30.19,North,355,0.0,0.0,65,0.00,SCT,,0.08,WeatherDisplay:10.37,2014-09-15 17:43:00,
2014-09-15 12:48:00,54.5,42.6,30.19,NNW,342,3.5,3.5,64,0.00,OVC,,0.08,WeatherDisplay:10.37,2014-09-15 17:48:00,
2014-09-15 12:53:00,55.1,41.9,30.19,NNW,344,2.3,2.3,61,0.00,OVC,,0.08,WeatherDisplay:10.37,2014-09-15 17:53:00,
2014-09-15 12:58:00,55.1,41.5,30.19,North,9,2.3,2.3,60,0.00,OVC,,0.08,WeatherDisplay:10.37,2014-09-15 17:58:00,
2014-09-15 13:03:00,54.7,42.3,30.19,NNW,327,0.0,0.0,63,0.00,OVC,,0.08,WeatherDisplay:10.37,2014-09-15 18:03:00,
2014-09-15 13:08:00,54.2,40.6,30.19,North,5,6.9,6.9,60,0.00,OVC,,0.08,WeatherDisplay:10.37,2014-09-15 18:08:00,
2014-09-15 13:13:00,54.4,40.8,30.19,North,11,3.5,3.5,60,0.00,OVC,,0.08,WeatherDisplay:10.37,2014-09-15 18:13:00,
2014-09-15 13:18:00,54.7,41.5,30.19,NNW,334,2.3,2.3,61,0.00,OVC,,0.08,WeatherDisplay:10.37,2014-09-15 18:18:00,
2014-09-15 13:23:00,55.1,41.9,30.19,NNW,336,1.1,1.1,61,0.00,OVC,,0.08,WeatherDisplay:10.37,2014-09-15 18:23:00,
2014-09-15 13:28:00,55.4,41.3,30.19,North,355,3.5,3.5,59,0.00,OVC,,0.08,WeatherDisplay:10.37,2014-09-15 18:28:00,
2014-09-15 13:33:00,55.8,41.7,30.19,North,355,0.0,0.0,59,0.00,OVC,,0.08,WeatherDisplay:10.37,2014-09-15 18:33:00,
2014-09-15 13:38:00,56.3,41.3,30.19,North,5,3.5,3.5,57,0.00,OVC,,0.08,WeatherDisplay:10.37,2014-09-15 18:38:00,
2014-09-15 13:43:00,55.8,40.8,30.19,NNW,334,5.8,5.8,57,0.00,OVC,,0.08,WeatherDisplay:10.37,2014-09-15 18:43:00,
2014-09-15 13:48:00,56.0,42.3,30.19,NNE,13,8.1,8.1,60,0.00,OVC,,0.08,WeatherDisplay:10.37,2014-09-15 18:48:00,
2014-09-15 13:53:00,56.2,41.2,30.19,North,5,3.5,3.5,57,0.00,OVC,,0.08,WeatherDisplay:10.37,2014-09-15 18:53:00,
2014-09-15 13:58:00,56.3,41.3,30.19,North,350,3.5,3.5,57,0.00,OVC,,0.08,WeatherDisplay:10.37,2014-09-15 18:58:00,
2014-09-15 14:03:00,56.5,41.4,30.19,NW,308,4.6,4.6,57,0.00,OVC,,0.08,WeatherDisplay:10.37,2014-09-15 19:03:00,
2014-09-15 14:08:00,55.8,39.9,30.19,North,355,10.4,10.4,55,0.00,OVC,,0.08,WeatherDisplay:10.37,2014-09-15 19:08:00,
2014-09-15 14:13:00,55.4,40.4,30.19,NNE,17,3.5,3.5,57,0.00,OVC,,0.08,WeatherDisplay:10.37,2014-09-15 19:13:00,
2014-09-15 14:18:00,55.1,40.6,30.19,NNW,343,1.0,1.0,58,0.00,OVC,,0.08,WeatherDisplay:10.37,2014-09-15 19:18:00,
2014-09-15 14:23:00,54.9,40.4,30.19,North,5,3.5,3.5,58,0.00,OVC,,0.08,WeatherDisplay:10.37,2014-09-15 19:23:00,
2014-09-15 14:25:00,55.1,41.0,30.19,North,350,2.0,0.0,59,0.00,OVC,,0.08,WeatherDisplay:10.37,2014-09-15 19:25:00,
2014-09-15 14:30:00,55.1,41.5,30.19,North,9,1.1,1.1,60,0.00,OVC,,0.08,WeatherDisplay:10.37,2014-09-15 19:30:00,
2014-09-15 14:35:00,55.2,40.2,30.19,NNW,348,2.3,2.3,57,0.00,BKN,,0.08,WeatherDisplay:10.37,2014-09-15 19:35:00,
2014-09-15 14:40:00,55.5,41.0,30.19,WNW,303,1.1,1.1,58,0.00,BKN,,0.08,WeatherDisplay:10.37,2014-09-15 19:40:00,
2014-09-15 14:45:00,56.0,41.0,30.19,NNW,338,3.5,3.5,57,0.00,BKN,,0.08,WeatherDisplay:10.37,2014-09-15 19:45:00,
2014-09-15 14:50:00,56.2,39.8,30.19,North,360,5.8,5.8,54,0.00,OVC,,0.08,WeatherDisplay:10.37,2014-09-15 19:50:00,
2014-09-15 14:55:00,56.8,38.3,30.19,North,9,12.7,12.7,50,0.00,OVC,,0.08,WeatherDisplay:10.37,2014-09-15 19:55:00,
2014-09-15 15:00:00,56.9,38.4,30.19,NNE,18,6.0,6.0,50,0.00,OVC,,0.08,WeatherDisplay:10.37,2014-09-15 20:00:00,
2014-09-15 15:05:00,57.2,38.7,30.19,North,5,5.8,5.8,50,0.00,OVC,,0.08,WeatherDisplay:10.37,2014-09-15 20:05:00,
2014-09-15 15:10:00,57.1,39.1,30.19,WNW,297,6.9,6.9,51,0.00,OVC,,0.08,WeatherDisplay:10.37,2014-09-15 20:10:00,
2014-09-15 15:15:00,56.9,39.4,30.19,NNW,341,7.0,7.0,52,0.00,OVC,,0.08,WeatherDisplay:10.37,2014-09-15 20:15:00,
2014-09-15 15:20:00,56.8,38.3,30.19,NNE,19,10.4,10.4,50,0.00,OVC,,0.08,WeatherDisplay:10.37,2014-09-15 20:20:00,
2014-09-15 15:25:00,57.1,38.6,30.18,NNE,23,5.8,5.8,50,0.00,OVC,,0.08,WeatherDisplay:10.37,2014-09-15 20:25:00,
2014-09-15 15:30:00,57.3,38.8,30.18,North,349,7.0,15.0,50,0.00,OVC,,0.08,WeatherDisplay:10.37,2014-09-15 20:30:00,
2014-09-15 15:35:00,56.8,37.3,30.18,NNE,25,10.0,10.0,48,0.00,OVC,,0.08,WeatherDisplay:10.37,2014-09-15 20:35:00,
2014-09-15 15:40:00,56.6,36.0,30.18,NNE,17,10.0,10.0,46,0.00,OVC,,0.08,WeatherDisplay:10.37,2014-09-15 20:40:00,
2014-09-15 15:45:00,56.5,34.8,30.18,North,360,6.0,6.0,44,0.00,OVC,,0.08,WeatherDisplay:10.37,2014-09-15 20:45:00,
2014-09-15 15:50:00,56.0,34.4,30.18,North,5,9.0,9.0,44,0.00,OVC,,0.08,WeatherDisplay:10.37,2014-09-15 20:50:00,
2014-09-15 15:52:00,55.7,34.7,30.18,North,9,5.8,5.8,45,0.00,BKN,,0.08,WeatherDisplay:10.37,2014-09-15 20:52:00,
2014-09-15 15:57:00,55.7,35.2,30.18,North,355,4.0,4.0,46,0.00,BKN,,0.08,WeatherDisplay:10.37,2014-09-15 20:57:00,
2014-09-15 16:02:00,56.5,34.3,30.17,NNE,17,4.6,4.6,43,0.00,SCT,,0.08,WeatherDisplay:10.37,2014-09-15 21:02:00,
2014-09-15 16:07:00,57.5,35.7,30.18,NNE,20,6.9,6.9,44,0.00,SCT,,0.08,WeatherDisplay:10.37,2014-09-15 21:07:00,
2014-09-15 16:12:00,58.1,35.1,30.18,NNE,19,6.9,6.9,42,0.00,SCT,,0.08,WeatherDisplay:10.37,2014-09-15 21:12:00,
2014-09-15 16:17:00,58.6,35.6,30.17,WNW,293,3.5,3.5,42,0.00,SCT,,0.08,WeatherDisplay:10.37,2014-09-15 21:17:00,
2014-09-15 16:22:00,58.9,34.6,30.17,NNW,347,3.5,3.5,40,0.00,SCT,,0.08,WeatherDisplay:10.37,2014-09-15 21:22:00,
2014-09-15 16:27:00,59.4,36.3,30.17,WNW,295,4.6,4.6,42,0.00,SCT,,0.08,WeatherDisplay:10.37,2014-09-15 21:27:00,
2014-09-15 16:32:00,59.5,36.4,30.17,NW,314,4.6,4.6,42,0.00,BKN,,0.08,WeatherDisplay:10.37,2014-09-15 21:32:00,
2014-09-15 16:37:00,60.2,36.4,30.17,NW,309,3.5,3.5,41,0.00,BKN,,0.08,WeatherDisplay:10.37,2014-09-15 21:37:00,
2014-09-15 16:42:00,60.3,36.5,30.17,NW,314,3.5,3.5,41,0.00,BKN,,0.08,WeatherDisplay:10.37,2014-09-15 21:42:00,
2014-09-15 16:47:00,59.7,37.7,30.17,North,360,4.6,4.6,44,0.00,SCT,,0.08,WeatherDisplay:10.37,2014-09-15 21:47:00,
2014-09-15 16:52:00,59.1,36.6,30.17,NNE,25,6.0,6.0,43,0.00,SCT,,0.08,WeatherDisplay:10.37,2014-09-15 21:52:00,
2014-09-15 16:57:00,58.6,37.9,30.17,North,5,3.5,3.5,46,0.00,SCT,,0.08,WeatherDisplay:10.37,2014-09-15 21:57:00,
2014-09-15 17:02:00,58.6,36.2,30.17,North,350,5.8,5.8,43,0.00,CLR,,0.08,WeatherDisplay:10.37,2014-09-15 22:02:00,
2014-09-15 17:04:00,58.4,35.4,30.17,North,5,4.6,4.6,42,0.00,CLR,,0.08,WeatherDisplay:10.37,2014-09-15 22:04:00,
2014-09-15 17:09:00,58.6,35.0,30.17,North,355,4.0,4.0,41,0.00,CLR,,0.08,WeatherDisplay:10.37,2014-09-15 22:09:00,
2014-09-15 17:14:00,58.6,35.0,30.17,NW,308,5.8,5.8,41,0.00,CLR,,0.08,WeatherDisplay:10.37,2014-09-15 22:14:00,
2014-09-15 17:19:00,58.6,36.2,30.17,NW,317,5.8,5.8,43,0.00,CLR,,0.08,WeatherDisplay:10.37,2014-09-15 22:19:00,
2014-09-15 17:24:00,58.1,35.7,30.17,West,281,4.0,4.0,43,0.00,CLR,,0.08,WeatherDisplay:10.37,2014-09-15 22:24:00,
2014-09-15 17:29:00,57.7,35.9,30.17,NNW,333,3.5,3.5,44,0.00,CLR,,0.08,WeatherDisplay:10.37,2014-09-15 22:29:00,
2014-09-15 17:34:00,57.7,36.5,30.17,North,350,3.5,3.5,45,0.00,CLR,,0.08,WeatherDisplay:10.37,2014-09-15 22:34:00,
2014-09-15 17:39:00,57.8,36.6,30.18,NNE,17,8.1,8.1,45,0.00,CLR,,0.08,WeatherDisplay:10.37,2014-09-15 22:39:00,
2014-09-15 17:44:00,57.7,35.9,30.18,North,355,6.9,6.9,44,0.00,CLR,,0.08,WeatherDisplay:10.37,2014-09-15 22:44:00,
2014-09-15 17:49:00,57.7,37.0,30.18,NNW,345,4.0,4.0,46,0.00,CLR,,0.08,WeatherDisplay:10.37,2014-09-15 22:49:00,
2014-09-15 17:54:00,57.5,35.7,30.17,NNW,337,4.6,4.6,44,0.00,CLR,,0.08,WeatherDisplay:10.37,2014-09-15 22:54:00,
2014-09-15 17:59:00,57.5,36.9,30.17,NNE,24,6.0,6.0,46,0.00,CLR,,0.08,WeatherDisplay:10.37,2014-09-15 22:59:00,
2014-09-15 18:04:00,57.4,35.6,30.18,WNW,299,4.6,4.6,44,0.00,SCT,,0.08,WeatherDisplay:10.37,2014-09-15 23:04:00,
2014-09-15 18:09:00,57.5,36.3,30.18,WNW,299,0.0,0.0,45,0.00,SCT,,0.08,WeatherDisplay:10.37,2014-09-15 23:09:00,
2014-09-15 18:14:00,57.5,35.7,30.18,NW,315,5.8,5.8,44,0.00,SCT,,0.08,WeatherDisplay:10.37,2014-09-15 23:14:00,
2014-09-15 18:19:00,57.2,35.5,30.18,West,278,4.6,4.6,44,0.00,SCT,,0.08,WeatherDisplay:10.37,2014-09-15 23:19:00,
2014-09-15 18:24:00,56.6,36.6,30.18,WNW,301,4.0,4.0,47,0.00,SCT,,0.08,WeatherDisplay:10.37,2014-09-15 23:24:00,
2014-09-15 18:29:00,56.2,36.8,30.18,North,5,3.5,3.5,48,0.00,SCT,,0.08,WeatherDisplay:10.37,2014-09-15 23:29:00,
2014-09-15 18:34:00,55.7,36.8,30.18,North,350,1.1,0.0,49,0.00,CLR,,0.08,WeatherDisplay:10.37,2014-09-15 23:34:00,
2014-09-15 18:39:00,55.4,37.1,30.18,NW,304,1.1,1.1,50,0.00,CLR,,0.08,WeatherDisplay:10.37,2014-09-15 23:39:00,
2014-09-15 18:44:00,55.1,37.3,30.18,NNE,13,0.0,0.0,51,0.00,CLR,,0.08,WeatherDisplay:10.37,2014-09-15 23:44:00,
2014-09-15 18:49:00,54.8,36.5,30.18,West,281,0.0,0.0,50,0.00,CLR,,0.08,WeatherDisplay:10.37,2014-09-15 23:49:00,
2014-09-15 18:54:00,54.7,36.9,30.18,North,355,0.0,0.0,51,0.00,CLR,,0.08,WeatherDisplay:10.37,2014-09-15 23:54:00,
2014-09-15 18:59:00,54.4,37.6,30.18,North,355,0.0,0.0,53,0.00,CLR,,0.08,WeatherDisplay:10.37,2014-09-15 23:59:00,
2014-09-15 19:04:00,54.1,37.8,30.18,North,355,0.0,0.0,54,0.00,CLR,,0.08,WeatherDisplay:10.37,2014-09-16 00:04:00,
2014-09-15 19:08:00,53.8,37.5,30.18,North,355,0.0,0.0,54,0.00,CLR,,0.08,WeatherDisplay:10.37,2014-09-16 00:08:00,
2014-09-15 19:13:00,53.5,37.7,30.18,North,355,0.0,0.0,55,0.00,CLR,,0.08,WeatherDisplay:10.37,2014-09-16 00:13:00,
2014-09-15 19:18:00,53.2,37.9,30.18,North,355,0.0,0.0,56,0.00,CLR,,0.08,WeatherDisplay:10.37,2014-09-16 00:18:00,
2014-09-15 19:23:00,52.7,37.9,30.18,North,355,0.0,0.0,57,0.00,CLR,,0.08,WeatherDisplay:10.37,2014-09-16 00:23:00,
2014-09-15 19:28:00,52.4,38.5,30.18,North,355,0.0,0.0,59,0.00,CLR,,0.08,WeatherDisplay:10.37,2014-09-16 00:28:00,
2014-09-15 19:32:00,52.0,38.5,30.18,North,355,0.0,0.0,60,0.00,CLR,,0.08,WeatherDisplay:10.37,2014-09-16 00:32:00,
2014-09-15 19:37:00,51.5,39.3,30.18,North,355,0.0,0.0,63,0.00,CLR,,0.08,WeatherDisplay:10.37,2014-09-16 00:37:00,
2014-09-15 19:42:00,51.0,39.2,30.18,North,355,0.0,0.0,64,0.00,CLR,,0.08,WeatherDisplay:10.37,2014-09-16 00:42:00,
2014-09-15 19:47:00,50.5,39.2,30.18,North,355,0.0,0.0,65,0.00,CLR,,0.08,WeatherDisplay:10.37,2014-09-16 00:47:00,
2014-09-15 19:52:00,50.1,38.8,30.19,North,355,0.0,0.0,65,0.00,CLR,,0.08,WeatherDisplay:10.37,2014-09-16 00:52:00,
2014-09-15 19:57:00,49.6,39.1,30.19,North,355,0.0,0.0,67,0.00,CLR,,0.08,WeatherDisplay:10.37,2014-09-16 00:57:00,
2014-09-15 20:02:00,49.2,39.5,30.19,North,355,0.0,0.0,69,0.00,CLR,,0.08,WeatherDisplay:10.37,2014-09-16 01:02:00,
2014-09-15 20:07:00,48.9,39.5,30.19,North,355,0.0,0.0,70,0.00,CLR,,0.08,WeatherDisplay:10.37,2014-09-16 01:07:00,
2014-09-15 20:12:00,48.4,39.8,30.19,North,355,0.0,0.0,72,0.00,CLR,,0.08,WeatherDisplay:10.37,2014-09-16 01:12:00,
2014-09-15 20:17:00,48.0,39.8,30.19,North,355,0.0,0.0,73,0.00,CLR,,0.08,WeatherDisplay:10.37,2014-09-16 01:17:00,
2014-09-15 20:22:00,47.7,39.5,30.19,North,355,0.0,0.0,73,0.00,CLR,,0.08,WeatherDisplay:10.37,2014-09-16 01:22:00,
2014-09-15 20:27:00,47.4,39.5,30.19,North,355,0.0,0.0,74,0.00,CLR,,0.08,WeatherDisplay:10.37,2014-09-16 01:27:00,
2014-09-15 20:32:00,47.1,39.2,30.19,North,355,0.0,0.0,74,0.00,CLR,,0.08,WeatherDisplay:10.37,2014-09-16 01:32:00,
2014-09-15 20:37:00,47.0,39.1,30.19,North,355,0.0,0.0,74,0.00,CLR,,0.08,WeatherDisplay:10.37,2014-09-16 01:37:00,
2014-09-15 20:42:00,46.7,38.9,30.19,North,355,0.0,0.0,74,0.00,CLR,,0.08,WeatherDisplay:10.37,2014-09-16 01:42:00,